Location: *
(41.7492°S, 135.4150°W)
Time: 01:58:30
(UTC+00:00)

ITAMSAT 1 - Pass Details

Date: 26 June 2022
Orbit: 784 x 795 km, 98.9° (Epoch: 09 August)

Event Time Altitude Azimuth Distance (km) Brightness Sun altitude
Rises 14:25:08 0° 67° (ENE) 3,306 12.3 -22.4°
Reaches altitude 10° 14:28:35 10° 91° (E) 2,384 11.2 -21.8°
Maximum altitude 14:31:12 14° 122° (ESE) 2,115 10.4 -21.3°
Drops below altitude 10° 14:33:51 10° 152° (SSE) 2,395 10.3 -20.8°
Sets 14:37:18 0° 175° (S) 3,332 10.8 -20.2°
